Weather in Berchtesgaden

Germany     47°37′52″N   13°00′24″E
temp.,
°C
wind,
m/s
gust,
m/s
humid.,
%
clouds,
%
prec.,
mm/h
press.,
hPa
HPBL,
m
18 may, tue
tue1823:00+6s3494100 0.3 101473
02:00+5sw239385 0.5 101662
05:00+6sw2392100 0.1 101673
08:00+8wnw128619 0.1 1017164
11:00+12nw3658100 0.4 10161672
14:00+12n235999 1.2 10141245
17:00+10nw2485100 1.6 10141091
20:00+7w1294100 5.1 101671
19 may, wed
wed1923:00+6ssw2395100 2.4 101871
02:00+5sw1297100 5.1 1019178
05:00+5sw2296100 0.6 101868
08:00+5wnw2597100 1.6 1019923
11:00+4wsw1597100 2.1 1020733
14:00+5wsw2397100 4.3 1020483
17:00+8sw238877 0.9 1019505
20:00+7sw11885 1.9 101911
20 may, thu
thu2023:00+3ssw329386 0.0 102139
02:00+5sw2397100 1.7 1021119
05:00+5nw2397100 0.8 1022147
08:00+5sw1398100 3.3 1024510
11:00+5wsw1397100 2.4 1025572
14:00+7w2388100 2.6 1025603
17:00+9wsw237266 0.1 1025774
20:00+7sw228526 0.2 102634
21 may, fri
fri2123:00+5s33835 0.0 102771
02:00+2s33855 0.0 102655
05:00+2sse33845 0.0 102452
08:00+8sse1262100 0.0 1021198
11:00+15se0242100 0.0 1018997
14:00+18ese1234100 0.0 10151675
17:00+19ene1240100 0.0 10131305
20:00+13sse2177100 0.0 101314
22 may, sat
sat2223:00+10s3476100 0.0 101274
02:00+9ssw3377100 0.0 101252
05:00+6s228559 0.0 101226
08:00+12sse1271100 0.0 1012135
11:00+7n22100100 3.4 1016159
14:00+9sse3392100 5.9 1016268
17:00+8wsw1294100 2.8 1017166
20:00+8s2394100 3.6 101791